OpenBCM V1.08-5-g2f4a (Linux)

Packet Radio Mailbox

IZ3LSV

[San Dona' di P. JN]

 Login: GUEST





  
I0OJJ  > KEPS     31.08.25 01:45l 314 Lines 14992 Bytes #113 (0) @ AMSAT
BID : ORB25243.1
Read: GUEST
Subj: 2Line Orbital Elements 25243.AMSAT
Path: IZ3LSV<IK6IHL<IK7NXU<HB9ON<DK0WUE<PD0LPM<PI8ZTM<IR0AAB<I0OJJ
Sent: 250831/0025z @:I0OJJ.ITA.EU [Rome] obcm1.08-10-g596e
From: I0OJJ @ I0OJJ.ITA.EU (Gustavo)
To:   KEPS @ AMSAT
X-Info: This message was generated automatically


QST de W1STR

AMSAT Orbital Elements for Amateur Satellites in TLE Format
From Orbital Analysis Office
New England Sci-Tech STEM Education Center
Natick MA August 31, 2025
To all radio amateurs


These element sets describe the orbits of various satellites 
in use by the amateur radio community. For details see:
www.amsat.org/keplerian-elements-formats/

A daily update of element sets is available at:
www.amsat.org/tle/daily-bulletin.txt
or without bulletin text:
www.amsat.org/tle/dailytle.txt


AO-07
1 07530U 74089B   25242.26839921 -.00000041  00000-0  37205-4 0  9995
2 07530 101.9974 247.4105 0012059 328.0685  43.5180 12.53691111324066
UO-11
1 14781U 84021B   25242.15597085  .00002016  00000-0  21677-3 0  9996
2 14781  97.7626 206.9537 0009363  70.9044 289.3186 14.89599211213784
AO-27
1 22825U 93061C   25242.10604868  .00000139  00000-0  70066-4 0  9992
2 22825  98.7297 304.0422 0007597 229.1613 130.8911 14.30822118665370
FO-29
1 24278U 96046B   25242.08204700  .00000012  00000-0  45177-4 0  9995
2 24278  98.5621 125.2087 0350623 131.3126 231.8760 13.53252313433798
NOAA-15
1 25338U 98030A   25242.07726612  .00000176  00000-0  89939-4 0  9993
2 25338  98.5330 265.2374 0011335 117.8544 242.3787 14.27008322419773
GO-32
1 25397U 98043D   25241.89877281  .00000125  00000-0  74118-4 0  9997
2 25397  98.9786 222.7450 0001345  23.7091 336.4149 14.24333042409865
ISS
1 25544U 98067A   25242.13842622  .00011529  00000-0  20753-3 0  9991
2 25544  51.6342 300.5391 0003281 291.2034  68.8604 15.50293422526636
NO-44
1 26931U 01043C   25242.09716298  .00000169  00000-0  94254-4 0  9990
2 26931  67.0495 277.0707 0006928 275.8591  84.1721 14.31768304248774
SO-50
1 27607U 02058C   25242.15118614  .00001512  00000-0  20267-3 0  9998
2 27607  64.5534 308.7018 0064872 316.6962  42.9055 14.81823003221312
CO-55
1 27844U 03031E   25242.25552909  .00000503  00000-0  23772-3 0  9996
2 27844  98.6785 249.4842 0008739 316.1063  43.9421 14.24052023150260
CO-57
1 27848U 03031J   25241.96112395  .00000370  00000-0  18246-3 0  9990
2 27848  98.6812 249.1371 0008991 335.9080  24.1677 14.23378336149941
RS-22
1 27939U 03042A   25242.23782516  .00001829  00000-0  29585-3 0  9990
2 27939  98.3357  53.7053 0012535 109.3797  63.5402 14.72530638172719
CO-58
1 28895U 05043F   25241.66097668  .00002242  00000-0  37101-3 0  9991
2 28895  98.2610  27.0852 0015339  53.3259 306.9355 14.71261000 58862
CO-65
1 32785U 08021C   25242.13030534  .00008890  00000-0  62717-3 0  9991
2 32785  97.7939 213.9689 0007892 302.7322  57.3143 15.05180236941349
CO-66
1 32791U 08021J   25242.22681245  .00020808  00000-0  95257-3 0  9997
2 32791  97.7347 224.2186 0001939 202.6196 157.4953 15.20533762942894
RS-30
1 32953U 08025A   25242.24908463  .00000053  00000-0  31180-3 0  9992
2 32953  82.5067 176.3971 0018047 225.8224 134.1373 12.43167785783544
NOAA-19
1 33591U 09005A   25242.10925884  .00000143  00000-0  10030-3 0  9992
2 33591  98.9909 307.2482 0014628 131.0980 229.1458 14.13400384853360
SRMSAT
1 37841U 11058D   25241.75250725  .00000461  00000-0  10678-3 0  9991
2 37841  19.9732  23.3291 0011644 237.9977 165.7942 14.11457188716598
ZACUBE-1
1 39417U 13066B   25242.13460298  .00006017  00000-0  51358-3 0  9997
2 39417  97.7858 198.7790 0044478 138.0725 222.3917 14.97299013637113
Delfi-N3xt
1 39428U 13066N   25242.01946632  .00009864  00000-0  97873-3 0  9992
2 39428  97.8285 158.7873 0085249  92.0658 269.0324 14.89236966631194
GOMX-1
1 39430U 13066Q   25242.29152946  .00002598  00000-0  40735-3 0  9994
2 39430  97.6750  95.9226 0130482 291.1611  67.5693 14.67922713627213
LO-74
1 39440U 13066AA  25241.85768593  .00005932  00000-0  59314-3 0  9995
2 39440  97.8529 185.8992 0059458 271.8628  87.5781 14.90513713633540
AO-73
1 39444U 13066AE  25241.84657603  .00011499  00000-0  83540-3 0  9990
2 39444  97.7889 204.1483 0042718 111.4635 249.1154 15.03281794635795
DTUSAT-2
1 40030U 14033W   25242.19964163  .00010138  00000-0  64018-3 0  9997
2 40030  98.0634 218.0532 0010510 135.3683 224.8392 15.09243002608703
EO-80
1 40032U 14033Y   25242.14945728  .00011136  00000-0  70117-3 0  9996
2 40032  98.0512 217.5412 0010362  87.0007 273.2406 15.09320340608670
LILACSAT-2
1 40908U 15049K   25242.29946907  .00017254  00000-0  42438-3 0  9994
2 40908  97.5043 264.7066 0007778 214.2579 145.8167 15.40665743550802
IO-86
1 40931U 15052B   25151.18580175  .00001241  00000-0  78118-4 0  9996
2 40931   6.0006  24.0987 0012733 338.8432  21.1169 14.78805930523159
Horyu-4
1 41340U 16012D   25241.44514025  .00035675  00000-0  85158-3 0  9997
2 41340  30.9959 306.8362 0007113 179.2108 180.8550 15.40276182525259
Lapan A3
1 41603U 16040E   25242.31283854  .00005132  00000-0  17693-3 0  9994
2 41603  97.1413 243.7518 0010187 348.2732  11.8271 15.30379358510287
CAS-2T
1 41847U 16066G   25242.12294152  .00000859  00000-0  13227-3 0  9994
2 41847  98.4147 315.8630 0344321 291.8528  64.6375 14.43673917462780
CAS-4B
1 42759U 17034B   25242.26348988  .00187906  00000-0  10818-2 0  9996
2 42759  43.0017 190.8164 0021307 152.5406 207.6594 15.77065103455438
CAS-4A
1 42761U 17034D   25242.26893272  .00226773  00000-0  11517-2 0  9993
2 42761  43.0051 186.6895 0021940 158.5092 201.6705 15.79705079455469
TechnoSat
1 42829U 17042E   25242.19032430  .00005143  00000-0  39329-3 0  9998
2 42829  97.4011  47.0408 0017780  12.7253 347.4418 15.02213604442976
AO-91
1 43017U 17073E   25242.08745897  .00008901  00000-0  44835-3 0  9991
2 43017  97.5125 110.8141 0167122 248.3998 109.9352 15.05979655421473
S-Net D
1 43186U 18014G   25241.69263547  .00007222  00000-0  41787-3 0  9995
2 43186  97.5514 143.7690 0007513 314.9135  45.1485 15.12531201414633
S-Net B
1 43187U 18014H   25241.69909908  .00006711  00000-0  38877-3 0  9992
2 43187  97.5521 143.7513 0008064 308.7520  51.2990 15.12511144414630
S-Net A
1 43188U 18014J   25241.69273336  .00007267  00000-0  42032-3 0  9997
2 43188  97.5529 143.9058 0008003 309.4084  50.6437 15.12536958414630
S-Net C
1 43189U 18014K   25241.96632353  .00006946  00000-0  40210-3 0  9995
2 43189  97.5546 144.2047 0009288 298.7302  61.2995 15.12512084413226
Ten-Koh
1 43677U 18084G   25242.27298990  .00003908  00000-0  31182-3 0  9997
2 43677  98.0835  57.7663 0006608   3.9061 356.2212 15.00915717372497
PO-101
1 43678U 18084H   25242.32144524  .00004306  00000-0  36344-3 0  9995
2 43678  98.1100  61.6046 0009087  29.7776 330.3961 14.98667767372620
QO-100
1 43700U 18090A   25242.17453422  .00000148  00000-0  00000-0 0  9998
2 43700   0.0137 122.6824 0001180  50.5800 253.9911  1.00274000 24752
MinXSS-2
1 43758U 18099A   25242.12149959  .00024155  00000-0  88226-3 0  9995
2 43758  97.4945 308.5210 0010634 221.7365 138.3064 15.28054497369419
AO-95
1 43770U 18099N   25242.13113863  .00012249  00000-0  59516-3 0  9996
2 43770  97.4843 299.3552 0008776 289.1385  70.8899 15.18553619368920
SNUSat 2
1 43782U 18099AA  25242.10422436  .00010974  00000-0  57908-3 0  9991
2 43782  97.4523 295.4016 0010845 225.1190 134.9163 15.15663092368845
SnugLite
1 43784U 18099AC  25242.14338950  .00014640  00000-0  70399-3 0  9997
2 43784  97.4337 295.1788 0002730 202.8669 157.2444 15.18900331369013
ITASat 1
1 43786U 18099AE  25242.13759447  .00008388  00000-0  46662-3 0  9994
2 43786  97.4495 294.6968 0012348 284.9347  75.0517 15.13847809368791
EAGLET 1
1 43790U 18099AJ  25242.09429325  .00006390  00000-0  40029-3 0  9995
2 43790  97.4689 294.3272 0010387 268.8686  91.1354 15.09661114368363
ESEO
1 43792U 18099AL  25242.10384669  .00001709  00000-0  13167-3 0  9992
2 43792  97.4407 286.4942 0010261 240.6471 119.3731 15.02878019368066
JO-97
1 43803U 18099AX  25242.12872648  .00016742  00000-0  72411-3 0  9996
2 43803  97.4587 300.5355 0006842 207.8691 152.2180 15.22501390369177
Suomi 100
1 43804U 18099AY  25242.14951404  .00013968  00000-0  65426-3 0  9992
2 43804  97.4653 299.6053 0011249 216.7147 143.3318 15.19772039369087
ISAT
1 43879U 18111D   25242.04824210  .00031174  00000-0  98031-3 0  9999
2 43879  97.5876 158.3767 0005277 265.0903  94.9736 15.32899386366162
UWE-4
1 43880U 18111E   25241.99793467  .00023166  00000-0  84456-3 0  9991
2 43880  97.5820 156.1944 0008788 286.7713  73.2562 15.28143061366057
Sparrow
1 43881U 18111F   25242.02523950  .00033994  00000-0  10211-2 0  9992
2 43881  97.6037 161.5651 0004098 331.0052  29.0962 15.34344002366265
Prox-1
1 44339U 19036A   25241.35528188  .00017396  00000-0  21349-2 0  9993
2 44339  23.9961 250.6283 0006566 269.2869  90.6876 14.81454938330005
Taurus 1
1 44530U 19059C   25242.34321797  .00011570  00000-0  20822-2 0  9991
2 44530  98.6155  25.7039 0009999 140.2618 219.9319 14.66731583315924
Duchifat 3
1 44854U 19089C   25242.11447353  .00094875  00000-0  14001-2 0  9996
2 44854  36.9389 194.1431 0008412 252.3677 107.6164 15.54116428315679
TO-108
1 44881U 19093C   25242.25665086  .00001399  00000-0  16702-3 0  9991
2 44881  97.7872 316.1848 0012916 328.6472  31.3972 14.85748240308200
FloripaSat 1
1 44885U 19093G   25242.26183241  .00009749  00000-0  80314-3 0  9991
2 44885  97.8143 330.0609 0007670 295.0718  64.9708 14.99255359308980
RS-44
1 44909U 19096E   25242.09702751  .00000043  00000-0  12042-3 0  9996
2 44909  82.5252 173.1287 0218464 104.8659 257.6749 12.79742931265119
UPMSat 2
1 46276U 20061E   25241.76862878  .00193066  00000-0  88246-3 0  9996
2 46276  97.2340 319.5817 0002382 218.4989 141.6111 15.83230920278243
SALSAT
1 46495U 20068K   25242.20463359  .00010847  00000-0  45290-3 0  9994
2 46495  97.8686 224.0962 0009458 231.6790 128.3596 15.23801797270953
